Find Starlink 34978

NORAD ID: 65435 Int'l Des: 2025-194 Owner: SPXS Country: US Constellation: starlink operational
LEOCIRCULARRETROGRADESSO

实时位置

正在加载3D地球...

关于 Starlink 34978

正在加载描述...

即将过境

Passes for default location (London). Set your location on the main map for personalized predictions.

高度历史

Loading altitude history...

两行轨道根数

1 65435U 25194B 26106.85494809 .00000873 00000-0 64735-4 0 9993
2 65435 97.6035 322.0567 0001818 87.2566 272.8869 15.05652242 35396
Epoch: Apr 16, 2026 • Age: 13 hours

当前状态

高度 551.4 km
速度 7.59 km/s
星下点 13.17°N, 24.78°W
发射日期 Sep 3, 2025
运行时间 0.6 years
类型 internet

技术详情

分类 Payload
质量 575.00 kg
干质量 530.00 kg
总质量 575.00 kg
长度 0.30 m
直径 4.10 m
跨度 29.00 m
形状 Box + pan
制造商 SPXS
平台类型 Starlink V2MO
阶段状态 In Orbit
所有者/国家 SPXS/US

Most Searched